"Pseudo-MPEC" for ZKA8E97

Created 2018 May 19 19:18:17 UT using Find_Orb

Click here for an explanation of pseudo-MPECs

 
 Astrometry: 
     ZKA8E97  C2018 05 17.33466 16 04 34.58 +02 36 05.1          20.5 GUNEOCPG96
     ZKA8E97  C2018 05 17.33989 16 04 42.22 +02 34 10.1          20.0 GUNEOCPG96
     ZKA8E97  C2018 05 17.34514 16 04 49.93 +02 32 15.4          20.1 GUNEOCPG96
     ZKA8E97  C2018 05 17.35042 16 04 57.57 +02 30 19.0          20.8 GUNEOCPG96
     ZKA8E97  C2018 05 17ZxAstrometry%loLGZywK]VxDKe,KsLN1EBE\]jV)J.c#i8BocL;H01
     ZKA8E97  C2018 05 17$w'0T7*f\M10!Nn\1v:nRBdojd'Akkw((@UQ7?,e3fHD=bx1nAucH01
     ZKA8E97  C2018 05 17w?MX`sJ^M,fm%ux:^redacted;'(K)hE%S9OVwH^V/1Zm^@3+Eb)H01
     ZKA8E97  C2018 05 17aAC^lLe4LjhejqvA?4w(E1O]RBw$K9[l\?9b^'4NITrtP:nkv=#/H01
     ZKA8E97  C2018 05 17.39461 16 06 02.37 +02 14 08.8          20.0 GUNEOCPI52
     ZKA8E97  C2018 05 17.39778 16 06 07.06 +02 12 59.3          20.6 GUNEOCPI52
     ZKA8E97  C2018 05 17.39888 16 06 08.65 +02 12 35.0          20.6 GUNEOCPI52
     ZKA8E97  C2018 05 17.39997 16 06 10.27 +02 12 10.7          20.2 GUNEOCPI52
     ZKA8E97  C2018 05 17.44176 16 07 12.63 +01 56 44.6          20.3 GUNEOCPI52
     ZKA8E97  C2018 05 17.44286 16 07 14.33 +01 56 20.5          20.4 GUNEOCPI52
     ZKA8E97  C2018 05 17.44396 16 07 16.00 +01 55 56.6          20.0 GUNEOCPI52
     ZKA8E97  C2018 05 17.44506 16 07 17.65 +01 55 31.2          20.6 GUNEOCPI52
     ZKA8E97  C2018 05 17.92928 16 21 01.05 -01 12 13.4          20.7 VSNEOCP033
     ZKA8E97  C2018 05 17.93002 16 21 02.22 -01 12 31.0          20.7 VSNEOCP033
     ZKA8E97  C2018 05 17.93075 16 21 03.44 -01 12 48.8          20.4 VSNEOCP033
     ZKA8E97  C2018 05 17.93149 16 21 04.63 -01 13 06.2          20.7 VSNEOCP033
     ZKA8E97  C2018 05 18Bv,GGy(m5!`x`h2hk@afJUZh0+W6_fY[M\Lb*b=j:#2F$G-Dq$:4H01
     ZKA8E97  C2018 05 18Et%_`^@gW:ZaVw+pUvUvCb@oXx/Nf.kmsee=)h*!ED[`3kJBcGw9H01
     ZKA8E97  C2018 05 18j93_K1HyRWCJs'l#(7QVQw'M`NJTr=g2hSZg+kC(/.@lv0+R;(YhH01
     ZKA8E97  C2018 05 18Ca8wZUlCqdr.+h$nPx`*tJ6Mer`S;HEl(T1NQ\._$DH(ly'NEOCPH01
     ZKA8E97  C2018 05 18.30886 16 32 09.55 -03 45 59.1          19.7 GUNEOCPI52
     ZKA8E97  C2018 05 18.30941 16 32 10.44 -03 46 12.7          19.8 GUNEOCPI52
     ZKA8E97  C2018 05 18.31050 16 32 12.29 -03 46 40.3          20.3 GUNEOCPI52
     ZKA8E97  C2018 05 19.34908 17 05 37.72 -11 20 05.9          20.5 GUNEOCPI52
     ZKA8E97  C2018 05 19.35018 17 05 39.84 -11 20 35.7          19.8 GUNEOCPI52

Station data:
(033) Karl Schwarzschild Observatory, Tautenburg  (N50.980140 E11.711240)
   Germany. 1.3-m Schmidt.
(G96) Mt. Lemmon Survey  (N32.442754 W110.788720)  US/Arizona.  Observers E.
   J. Christensen, A. R. Gibbs, A. D. Grauer, R. E. Hill, J. A. Johnson, R.
   A. Kowalski, S. M. Larson, F. C. Shelly. 1.5-m reflector + CCD.
(H01) Magdalena Ridge Observatory, Socorro  (N33.985151 W107.189200)  US/New
   Mexico.  Observers W. H. Ryan, E. V. Ryan. Measurer W. H. Ryan. 2.4-m
   f/8.9 reflector + CCD.
(I52) Steward Observatory, Mt. Lemmon Station  (N32.442547 W110.788920)
   US/Arizona.

Orbital elements:  ZKA8E97
   Perihelion 2018 May 25.388589 +/- 0.00142 TT =  9:19:34 (JD 2458263.888589)
Epoch 2018 May 19.0 TT = JDT 2458257.5   Earth MOID: 0.0187   AutoNEOCP
M 357.72551 +/- 0.0046              (J2000 ecliptic)
n   0.35602345 +/- 0.0007           Peri.  184.95614 +/- 0.0017
a   1.97159166 +/- 0.00258          Node    60.39293 +/- 0.0008
e   0.4774538 +/- 0.000674          Incl.    7.42166 +/- 0.007
P   2.77                   H 27.5   G  0.15   U  7.9  
q 1.03024768 +/- 2.2e-5    Q 2.91293565 +/- 0.00516
From 29 observations 2018 May 17-19; mean residual 0".34
Residuals in arcseconds: 
180517 G96  1.0-  1.1+    180517 I52  .30-  .00     180518 H01  .25-  .26+    
180517 G96  .39-  .21+    180517 I52  .19-  .24-    180518 H01  .01-  .10-    
180517 G96  .71+  .17+    180517 I52  .43-  .42-    180518 H01  .17-  .29+    
180517 G96  .02-  .80-    180517 I52  .20+  .06-    180518 H01  .20-  .30+    
180517 H01  .18+  .19-    180517 I52  .37+  .51+    180518 I52  .17+  .11+    
180517 H01  .09+  .14-    180517 I52  .22+  .42-    180518 I52  .38-  .33+    
180517 H01  .15+  .06-    180517 033  .53+  .19-    180518 I52  .18-  .11+    
180517 H01  .03-  .20+    180517 033  .05-  .07-    180519 I52  .13-  .01+    
180517 I52  .15+  .40-    180517 033  .37+  .39-    180519 I52  .16+  .19-    
180517 I52  .25+  .03+    180517 033  .09+  .08-    

Ephemerides (geocentric):
Date (UTC) HH   RA              Dec         delta   r     elong  mag " sig PA
---- -- -- --  ------------   ------------  ------ ------ -----  --- ---- ---
2018 05 19 19  17 21 00.443   -14 33 34.80  .02236 1.0323 156.5 20.5  .08  36
2018 05 19 20  17 22 29.292   -14 52 08.63  .02235 1.0323 156.3 20.5  .08  54
2018 05 19 21  17 23 58.427   -15 10 40.81  .02235 1.0323 156.1 20.5  .09  71
2018 05 19 22  17 25 27.842   -15 29 11.15  .02234 1.0322 155.8 20.5  .10  85
2018 05 19 23  17 26 57.530   -15 47 39.42  .02234 1.0322 155.6 20.5  .13  95
2018 05 20 00  17 28 27.486   -16 06 05.43  .02234 1.0322 155.3 20.5  .15 103
2018 05 20 01  17 29 57.702   -16 24 28.96  .02235 1.0321 155.1 20.5  .18 108
2018 05 20 02  17 31 28.172   -16 42 49.81  .02235 1.0321 154.8 20.5  .20 112
2018 05 20 03  17 32 58.888   -17 01 07.77  .02236 1.0321 154.6 20.5  .23 115
2018 05 20 04  17 34 29.843   -17 19 22.64  .02236 1.0321 154.3 20.5  .26 117
2018 05 20 05  17 36 01.031   -17 37 34.22  .02237 1.0320 154.1 20.5  .30 119
2018 05 20 06  17 37 32.444   -17 55 42.30  .02238 1.0320 153.8 20.5  .33 120
2018 05 20 07  17 39 04.074   -18 13 46.69  .02239 1.0320 153.5 20.5  .36 121
2018 05 20 08  17 40 35.915   -18 31 47.19  .02241 1.0319 153.2 20.6  .40 122
2018 05 20 09  17 42 07.957   -18 49 43.61  .02242 1.0319 152.9 20.6  .44 123
2018 05 20 10  17 43 40.195   -19 07 35.75  .02244 1.0319 152.7 20.6  .47 124
2018 05 20 11  17 45 12.619   -19 25 23.42  .02245 1.0319 152.4 20.6  .51 124
2018 05 20 12  17 46 45.221   -19 43 06.45  .02247 1.0318 152.1 20.6  .55 125
2018 05 20 13  17 48 17.995   -20 00 44.64  .02249 1.0318 151.8 20.6  .59 125
2018 05 20 14  17 49 50.930   -20 18 17.81  .02252 1.0318 151.5 20.6  .63 126
2018 05 20 15  17 51 24.020   -20 35 45.80  .02254 1.0318 151.2 20.6  .67 126
2018 05 20 16  17 52 57.256   -20 53 08.41  .02256 1.0317 150.9 20.6  .71 126
2018 05 20 17  17 54 30.630   -21 10 25.50  .02259 1.0317 150.6 20.7  .75 126
2018 05 20 18  17 56 04.133   -21 27 36.88  .02262 1.0317 150.3 20.7  .79 126
2018 05 20 19  17 57 37.756   -21 44 42.39  .02265 1.0316 150.0 20.7  .84 126
2018 05 20 20  17 59 11.490   -22 01 41.88  .02268 1.0316 149.7 20.7  .88 127
2018 05 20 21  18 00 45.329   -22 18 35.20  .02271 1.0316 149.3 20.7  .92 127
2018 05 20 22  18 02 19.261   -22 35 22.18  .02275 1.0316 149.0 20.7  .97 127
2018 05 20 23  18 03 53.279   -22 52 02.69  .02278 1.0315 148.7 20.7  1.0 127
2018 05 21 00  18 05 27.374   -23 08 36.58  .02282 1.0315 148.4 20.7  1.1 127
2018 05 21 01  18 07 01.537   -23 25 03.72  .02286 1.0315 148.1 20.7  1.1 127
2018 05 21 02  18 08 35.759   -23 41 23.97  .02290 1.0315 147.8 20.8  1.1 127
2018 05 21 03  18 10 10.031   -23 57 37.21  .02294 1.0315 147.5 20.8  1.2 127
2018 05 21 04  18 11 44.344   -24 13 43.30  .02298 1.0314 147.1 20.8  1.2 127
2018 05 21 05  18 13 18.689   -24 29 42.13  .02302 1.0314 146.8 20.8  1.3 126
2018 05 21 06  18 14 53.057   -24 45 33.58  .02307 1.0314 146.5 20.8  1.3 126
2018 05 21 07  18 16 27.439   -25 01 17.55  .02312 1.0314 146.2 20.8  1.4 126
2018 05 21 08  18 18 01.826   -25 16 53.93  .02316 1.0313 145.9 20.8  1.4 126
2018 05 21 09  18 19 36.209   -25 32 22.62  .02321 1.0313 145.5 20.9  1.5 126
2018 05 21 10  18 21 10.579   -25 47 43.52  .02326 1.0313 145.2 20.9  1.5 126
2018 05 21 11  18 22 44.927   -26 02 56.53  .02332 1.0313 144.9 20.9  1.6 126
2018 05 21 12  18 24 19.243   -26 18 01.59  .02337 1.0312 144.6 20.9  1.6 126
2018 05 21 13  18 25 53.519   -26 32 58.60  .02343 1.0312 144.3 20.9  1.7 126
2018 05 21 14  18 27 27.746   -26 47 47.48  .02348 1.0312 143.9 20.9  1.7 126
2018 05 21 15  18 29 01.915   -27 02 28.17  .02354 1.0312 143.6 20.9  1.8 125
2018 05 21 16  18 30 36.017   -27 17 00.59  .02360 1.0312 143.3 20.9  1.8 125
2018 05 21 17  18 32 10.042   -27 31 24.69  .02366 1.0311 143.0 21.0  1.9 125
2018 05 21 18  18 33 43.983   -27 45 40.41  .02372 1.0311 142.7 21.0  1.9 125